AFL1314 UUEE-URMM

Flight info

Callsign AFL1314
Flight time N/A
Altitude 35000
Route N0450F350 TOGMO M56 ABAGI B105 NIMTA/K0841F360 B105 NATIT DCT MOLED N50 LIDUS G242 ZG DCT ITAKA DCT OBBUD DCT AMKOL DCT GOTIK DCT MEMZA A962 OKARU
Aircraft A320/M-VGDW/C

Departure

Time 2026-05-05 17:04
Airport Sheremetyevo International Airport (UUEE)

Arrival

Time N/A
Airport Mineralnye Vody Airport (URMM)
Time Latitude Longitude Altitude Speed Heading
2026-05-05 16:46 55.98031 37.42946 639 ft 0 kts 345°
2026-05-05 16:59 55.98078 37.42931 639 ft 15 kts
2026-05-05 16:59 55.98129 37.43148 641 ft 26 kts 77°
2026-05-05 16:59 55.98143 37.43422 641 ft 22 kts 94°
2026-05-05 16:59 55.98191 37.43748 640 ft 31 kts 73°
2026-05-05 17:00 55.98185 37.43991 646 ft 10 kts 131°
2026-05-05 17:00 55.98107 37.43948 644 ft 14 kts 164°
2026-05-05 17:00 55.98004 37.44012 645 ft 17 kts 162°
2026-05-05 17:00 55.97883 37.44070 639 ft 18 kts 166°
2026-05-05 17:01 55.97785 37.44021 646 ft 15 kts 250°
2026-05-05 17:01 55.97777 37.43975 640 ft 0 kts 252°
2026-05-05 17:03 55.97737 37.43744 641 ft 54 kts 254°
2026-05-05 17:03 55.97579 37.42701 640 ft 117 kts 255°
2026-05-05 17:03 55.97327 37.40995 642 ft 165 kts 256°
2026-05-05 17:03 55.97014 37.38870 997 ft 181 kts 254°
2026-05-05 17:04 55.96677 37.36694 1665 ft 182 kts 252°
2026-05-05 17:04 55.96323 37.34473 2194 ft 195 kts 252°
2026-05-05 17:04 55.95928 37.32009 2489 ft 219 kts 253°
2026-05-05 17:04 55.95489 37.29253 2840 ft 242 kts 253°
2026-05-05 17:05 55.95020 37.26290 3480 ft 252 kts 254°
2026-05-05 17:05 55.94543 37.23269 4328 ft 254 kts 254°
2026-05-05 17:05 55.94065 37.20224 5169 ft 256 kts 255°
2026-05-05 17:05 55.93579 37.17157 6006 ft 257 kts 255°
2026-05-05 17:06 55.93090 37.14075 6797 ft 260 kts 255°
2026-05-05 17:06 55.92597 37.10957 7553 ft 262 kts 255°
2026-05-05 17:06 55.92109 37.07851 8320 ft 265 kts 255°
2026-05-05 17:06 55.91816 37.04609 9068 ft 267 kts 271°
2026-05-05 17:07 55.92135 37.01333 9683 ft 273 kts 289°
2026-05-05 17:07 55.93076 36.98403 9810 ft 275 kts 309°
2026-05-05 17:07 55.94549 36.96206 9834 ft 278 kts 323°
2026-05-05 17:07 55.96152 36.94271 9839 ft 278 kts 323°
2026-05-05 17:08 55.97908 36.92783 9838 ft 283 kts 341°
2026-05-05 17:08 55.99881 36.92395 9848 ft 290 kts
2026-05-05 17:08 56.01865 36.93316 10336 ft 302 kts 22°
2026-05-05 17:08 56.03684 36.95257 11060 ft 306 kts 30°
2026-05-05 17:09 56.05477 36.97335 11767 ft 309 kts 30°
2026-05-05 17:09 56.07285 36.99441 12449 ft 311 kts 30°
2026-05-05 17:09 56.09106 37.01578 13125 ft 315 kts 32°
2026-05-05 17:09 56.10768 37.04197 13689 ft 324 kts 46°
2026-05-05 17:10 56.12057 37.07522 13832 ft 333 kts 62°
2026-05-05 17:10 56.12865 37.11529 14093 ft 349 kts 75°
2026-05-05 17:10 56.13449 37.15803 14595 ft 355 kts 75°
2026-05-05 17:10 56.14053 37.20117 14798 ft 358 kts 75°
2026-05-05 17:11 56.14544 37.24483 14841 ft 358 kts 85°
2026-05-05 17:11 56.14374 37.28929 14838 ft 358 kts 104°
2026-05-05 17:11 56.13470 37.33049 14847 ft 356 kts 123°
2026-05-05 17:11 56.11903 37.36465 15319 ft 355 kts 141°
2026-05-05 17:12 56.09869 37.38937 15896 ft 353 kts 157°
2026-05-05 17:12 56.07643 37.40835 16460 ft 356 kts 158°
2026-05-05 17:12 56.05393 37.42723 17026 ft 359 kts 158°
2026-05-05 17:12 56.03124 37.44615 17579 ft 362 kts 158°
2026-05-05 17:13 56.00831 37.46520 18128 ft 365 kts 158°
2026-05-05 17:13 55.98532 37.48483 18601 ft 369 kts 153°
2026-05-05 17:13 55.96426 37.51155 19067 ft 375 kts 139°
2026-05-05 17:13 55.94706 37.54695 19547 ft 381 kts 125°
2026-05-05 17:14 55.93488 37.58922 20023 ft 386 kts 110°
2026-05-05 17:14 55.92827 37.63578 20492 ft 389 kts 101°
2026-05-05 17:14 55.92312 37.68327 20955 ft 392 kts 101°
2026-05-05 17:14 55.91683 37.73072 21394 ft 394 kts 109°
2026-05-05 17:15 55.90614 37.77558 21855 ft 395 kts 120°
2026-05-05 17:15 55.89268 37.81837 22305 ft 397 kts 121°
2026-05-05 17:15 55.87910 37.86154 22749 ft 400 kts 121°
2026-05-05 17:15 55.86554 37.90484 23182 ft 403 kts 121°
2026-05-05 17:16 55.85066 37.94717 23571 ft 403 kts 131°
2026-05-05 17:16 55.83053 37.98128 23921 ft 399 kts 148°
2026-05-05 17:16 55.80609 38.00391 24274 ft 395 kts 165°
2026-05-05 17:16 55.77939 38.01333 24629 ft 390 kts 181°
2026-05-05 17:17 55.75249 38.00961 24976 ft 386 kts 196°
2026-05-05 17:17 55.72737 37.99368 25314 ft 383 kts 211°
2026-05-05 17:17 55.70565 37.96674 25649 ft 381 kts 226°
2026-05-05 17:17 55.68675 37.93377 25979 ft 383 kts 224°
2026-05-05 17:18 55.66516 37.90580 26308 ft 388 kts 212°
2026-05-05 17:18 55.64024 37.88661 26628 ft 395 kts 199°
2026-05-05 17:18 55.61330 37.87733 26767 ft 406 kts 186°
2026-05-05 17:18 55.58467 37.87870 26899 ft 417 kts 177°
2026-05-05 17:19 55.55558 37.88373 27051 ft 423 kts 177°
2026-05-05 17:19 55.52604 37.88878 27184 ft 430 kts 177°
2026-05-05 17:19 55.49605 37.89381 27318 ft 436 kts 177°
2026-05-05 17:19 55.46566 37.89884 27450 ft 442 kts 177°
2026-05-05 17:20 55.43482 37.90407 27582 ft 448 kts 175°
2026-05-05 17:20 55.40404 37.91471 27716 ft 455 kts 166°
2026-05-05 17:20 55.37405 37.93394 27845 ft 463 kts 157°
2026-05-05 17:20 55.34575 37.96153 27980 ft 469 kts 148°
2026-05-05 17:21 55.31863 37.99378 28186 ft 472 kts 148°
2026-05-05 17:21 55.29137 38.02607 28493 ft 472 kts 148°
2026-05-05 17:21 55.26437 38.05781 28691 ft 460 kts 148°
2026-05-05 17:22 55.21357 38.11725 28947 ft 418 kts 148°
2026-05-05 17:22 55.18996 38.14486 29077 ft 399 kts 148°
2026-05-05 17:22 55.16743 38.17118 29204 ft 380 kts 148°
2026-05-05 17:22 55.14599 38.19623 29336 ft 361 kts 148°
2026-05-05 17:23 55.12560 38.21999 29469 ft 343 kts 148°
2026-05-05 17:23 55.10628 38.24243 29596 ft 324 kts 148°
2026-05-05 17:23 55.08808 38.26354 29700 ft 305 kts 149°
2026-05-05 17:23 55.07059 38.28383 29358 ft 302 kts 149°
2026-05-05 17:24 55.05276 38.30439 28551 ft 313 kts 149°
2026-05-05 17:24 55.03438 38.32543 28006 ft 316 kts 149°
2026-05-05 17:24 55.01630 38.34607 27921 ft 303 kts 149°
2026-05-05 17:24 54.99896 38.36587 27729 ft 295 kts 149°
2026-05-05 17:25 54.98158 38.38566 27193 ft 302 kts 149°
2026-05-05 17:25 54.96986 38.39895 26821 ft 305 kts 149°
2026-05-05 17:25 54.95940 38.41076 26591 ft 305 kts 149°
2026-05-05 17:25 54.94561 38.42630 26537 ft 312 kts 149°
2026-05-05 17:26 54.92751 38.44662 26975 ft 310 kts 149°
2026-05-05 17:26 54.90926 38.46767 27097 ft 319 kts 148°
2026-05-05 17:26 54.89062 38.48967 27238 ft 328 kts 148°
2026-05-05 17:26 54.87155 38.51224 27363 ft 336 kts 148°
2026-05-05 17:27 54.85193 38.53527 27501 ft 345 kts 148°
2026-05-05 17:27 54.83177 38.55865 27635 ft 353 kts 148°
2026-05-05 17:27 54.81103 38.58245 27769 ft 361 kts 148°
2026-05-05 17:27 54.78973 38.60670 27908 ft 370 kts 148°
2026-05-05 17:28 54.76826 38.63108 28054 ft 378 kts 148°
2026-05-05 17:28 54.74592 38.65592 28176 ft 385 kts 149°
2026-05-05 17:28 54.72252 38.68075 28321 ft 393 kts 150°
2026-05-05 17:28 54.69916 38.70489 28456 ft 400 kts 150°
2026-05-05 17:29 54.67499 38.72960 28592 ft 407 kts 150°
2026-05-05 17:29 54.65011 38.75502 28743 ft 414 kts 150°
2026-05-05 17:29 54.62511 38.78063 28872 ft 420 kts 150°
2026-05-05 17:29 54.59982 38.80667 29019 ft 426 kts 150°
2026-05-05 17:30 54.57421 38.83320 29160 ft 432 kts 150°
2026-05-05 17:30 54.54863 38.85980 29300 ft 438 kts 149°
2026-05-05 17:30 54.52240 38.88703 29448 ft 443 kts 149°
2026-05-05 17:30 54.49587 38.91451 29590 ft 448 kts 149°
2026-05-05 17:31 54.46901 38.94227 29738 ft 452 kts 149°
2026-05-05 17:31 54.44192 38.97037 29879 ft 456 kts 148°
2026-05-05 17:31 54.41637 39.00302 30008 ft 461 kts 139°
2026-05-05 17:31 54.39400 39.04243 30202 ft 463 kts 129°
2026-05-05 17:32 54.37554 39.08770 30456 ft 463 kts 120°
2026-05-05 17:32 54.36137 39.13797 30738 ft 462 kts 112°
2026-05-05 17:32 54.34941 39.18830 31005 ft 462 kts 112°
2026-05-05 17:32 54.33702 39.23987 31306 ft 462 kts 112°
2026-05-05 17:33 54.32489 39.29003 31571 ft 461 kts 112°
2026-05-05 17:33 54.31244 39.34136 31860 ft 461 kts 112°
2026-05-05 17:33 54.30014 39.39202 32147 ft 460 kts 112°
2026-05-05 17:33 54.28800 39.44186 32425 ft 460 kts 112°
2026-05-05 17:34 54.27566 39.49223 32707 ft 459 kts 112°
2026-05-05 17:34 54.26329 39.54260 32987 ft 458 kts 112°
2026-05-05 17:34 54.25095 39.59281 33269 ft 458 kts 112°
2026-05-05 17:34 54.23862 39.64305 33545 ft 458 kts 112°
2026-05-05 17:35 54.22633 39.69318 33826 ft 457 kts 112°
2026-05-05 17:35 54.21401 39.74321 34078 ft 456 kts 113°
2026-05-05 17:35 54.20167 39.79311 34297 ft 456 kts 113°
2026-05-05 17:35 54.18928 39.84306 34502 ft 457 kts 113°
2026-05-05 17:36 54.17687 39.89296 34705 ft 457 kts 113°
2026-05-05 17:36 54.16444 39.94289 34845 ft 458 kts 113°
2026-05-05 17:36 54.15197 39.99294 34882 ft 460 kts 113°
2026-05-05 17:37 54.12684 40.09336 34877 ft 460 kts 113°
2026-05-05 17:37 54.10608 40.19652 34884 ft 460 kts 106°
2026-05-05 17:38 54.08802 40.30117 34880 ft 460 kts 106°
2026-05-05 17:38 54.07300 40.38807 34878 ft 461 kts 107°
2026-05-05 17:39 54.05468 40.49259 34881 ft 461 kts 107°
2026-05-05 17:39 54.03616 40.59698 34882 ft 461 kts 107°
2026-05-05 17:40 54.01771 40.70139 34889 ft 461 kts 107°
2026-05-05 17:40 53.99917 40.80559 34890 ft 461 kts 107°
2026-05-05 17:41 53.98051 40.90979 34889 ft 461 kts 107°
2026-05-05 17:41 53.96175 41.01390 34891 ft 461 kts 107°
2026-05-05 17:42 53.94350 41.11816 34894 ft 461 kts 105°
2026-05-05 17:42 53.92664 41.22304 34891 ft 461 kts 105°
2026-05-05 17:43 53.90983 41.32784 34890 ft 461 kts 105°
2026-05-05 17:43 53.89257 41.43247 34891 ft 461 kts 106°
2026-05-05 17:44 53.87499 41.53687 34893 ft 461 kts 106°
2026-05-05 17:44 53.85750 41.64057 34895 ft 461 kts 106°
2026-05-05 17:45 53.83983 41.74555 34895 ft 461 kts 106°
2026-05-05 17:45 53.82222 41.84919 34900 ft 461 kts 106°
2026-05-05 17:46 53.80428 41.95326 34900 ft 461 kts 106°
2026-05-05 17:46 53.78623 42.05720 34902 ft 460 kts 106°
2026-05-05 17:47 53.76817 42.16102 34902 ft 460 kts 106°
2026-05-05 17:47 53.75003 42.26479 34901 ft 461 kts 107°
2026-05-05 17:48 53.73185 42.36854 34901 ft 461 kts 107°
2026-05-05 17:48 53.71351 42.47226 34898 ft 461 kts 107°
2026-05-05 17:49 53.69370 42.57496 34902 ft 460 kts 115°
2026-05-05 17:49 53.67822 42.62213 34903 ft 459 kts 126°
2026-05-05 17:49 53.65813 42.66385 34902 ft 458 kts 135°
2026-05-05 17:49 53.63420 42.69915 34900 ft 457 kts 146°
2026-05-05 17:50 53.60709 42.72694 34899 ft 455 kts 155°
2026-05-05 17:50 53.54901 42.76934 34899 ft 455 kts 158°
2026-05-05 17:51 53.49071 42.81130 34900 ft 456 kts 158°
2026-05-05 17:51 53.43236 42.85329 34904 ft 457 kts 158°
2026-05-05 17:52 53.37391 42.89530 34915 ft 457 kts 158°
2026-05-05 17:52 53.31545 42.93706 34919 ft 457 kts 158°
2026-05-05 17:53 53.25693 42.97864 34929 ft 457 kts 158°
2026-05-05 17:53 53.19844 43.02015 34929 ft 457 kts 158°
2026-05-05 17:54 53.14001 43.06163 34932 ft 456 kts 158°
2026-05-05 17:54 53.08177 43.10384 34934 ft 456 kts 157°
2026-05-05 17:55 53.02430 43.14706 34937 ft 456 kts 156°
2026-05-05 17:55 52.96647 43.19052 34940 ft 456 kts 157°
2026-05-05 17:56 52.90860 43.23331 34940 ft 455 kts 157°
2026-05-05 17:56 52.85077 43.27579 34939 ft 455 kts 157°
2026-05-05 17:57 52.79288 43.31816 34939 ft 455 kts 157°
2026-05-05 17:57 52.73505 43.36049 34943 ft 455 kts 157°
2026-05-05 17:58 52.67721 43.40285 34944 ft 454 kts 157°
2026-05-05 17:58 52.61938 43.44493 34942 ft 454 kts 157°
2026-05-05 17:59 52.56160 43.48686 34940 ft 454 kts 157°
2026-05-05 17:59 52.50381 43.52880 34942 ft 454 kts 157°
2026-05-05 18:00 52.44606 43.57047 34941 ft 453 kts 157°
2026-05-05 18:00 52.38828 43.61201 34938 ft 453 kts 157°
2026-05-05 18:01 52.33057 43.65337 34938 ft 453 kts 157°
2026-05-05 18:01 52.27281 43.69468 34939 ft 453 kts 157°
2026-05-05 18:02 52.21504 43.73594 34939 ft 453 kts 157°
2026-05-05 18:02 52.15723 43.77706 34940 ft 453 kts 157°
2026-05-05 18:03 52.09980 43.81785 34942 ft 453 kts 157°
2026-05-05 18:03 52.04197 43.85893 34940 ft 453 kts 157°
2026-05-05 18:04 51.98409 43.89976 34944 ft 454 kts 157°
2026-05-05 18:04 51.92622 43.94049 34954 ft 454 kts 157°
2026-05-05 18:05 51.86821 43.98109 34963 ft 454 kts 157°
2026-05-05 18:05 51.81022 44.02160 34959 ft 454 kts 157°
2026-05-05 18:06 51.75224 44.06213 34953 ft 454 kts 157°
2026-05-05 18:06 51.69430 44.10244 34953 ft 454 kts 157°
2026-05-05 18:07 51.63631 44.14261 34954 ft 454 kts 157°
2026-05-05 18:07 51.57819 44.18268 34956 ft 454 kts 157°
2026-05-05 18:08 51.52011 44.22271 34960 ft 454 kts 157°
2026-05-05 18:08 51.46202 44.26266 34959 ft 454 kts 157°
2026-05-05 18:09 51.40395 44.30261 34958 ft 454 kts 157°
2026-05-05 18:09 51.34587 44.34246 34956 ft 454 kts 157°
2026-05-05 18:10 51.28767 44.38212 34957 ft 454 kts 157°
2026-05-05 18:10 51.22949 44.42167 34956 ft 455 kts 157°
2026-05-05 18:11 51.17068 44.45660 34955 ft 454 kts 167°
2026-05-05 18:11 51.10804 44.46454 34955 ft 453 kts 184°
2026-05-05 18:12 51.04471 44.45831 34952 ft 453 kts 184°
2026-05-05 18:12 50.98172 44.45239 34955 ft 454 kts 184°
2026-05-05 18:13 50.91868 44.44658 34959 ft 454 kts 184°
2026-05-05 18:13 50.85561 44.44072 34958 ft 454 kts 184°
2026-05-05 18:14 50.79249 44.43481 34956 ft 454 kts 184°
2026-05-05 18:14 50.72941 44.42909 34961 ft 454 kts 183°
2026-05-05 18:15 50.66665 44.42333 34963 ft 455 kts 184°
2026-05-05 18:15 50.60352 44.41733 34970 ft 455 kts 183°
2026-05-05 18:16 50.54033 44.41153 34977 ft 455 kts 183°
2026-05-05 18:16 50.47715 44.40572 34968 ft 455 kts 183°
2026-05-05 18:17 50.41395 44.40004 34975 ft 455 kts 183°
2026-05-05 18:17 50.35072 44.39439 34976 ft 455 kts 183°
2026-05-05 18:18 50.28752 44.38853 34973 ft 455 kts 183°
2026-05-05 18:18 50.22428 44.38266 34977 ft 455 kts 183°
2026-05-05 18:19 50.16096 44.37696 34969 ft 456 kts 183°
2026-05-05 18:19 50.09760 44.37138 34966 ft 456 kts 183°
2026-05-05 18:20 50.03405 44.36576 35248 ft 457 kts 183°
2026-05-05 18:20 50.01305 44.36388 35399 ft 457 kts 182°
2026-05-05 18:20 49.97052 44.36006 35680 ft 457 kts 182°
2026-05-05 18:20 49.93880 44.35719 35883 ft 457 kts 182°
2026-05-05 18:21 49.90750 44.35433 35965 ft 457 kts 182°
2026-05-05 18:21 49.84408 44.34862 35971 ft 456 kts 182°
2026-05-05 18:22 49.78075 44.34296 35969 ft 456 kts 182°
2026-05-05 18:22 49.72778 44.33826 35967 ft 455 kts 182°
2026-05-05 18:23 49.66464 44.33272 35969 ft 454 kts 182°
2026-05-05 18:23 49.59124 44.32835 35970 ft 453 kts 175°
2026-05-05 18:24 49.54008 44.34314 35975 ft 449 kts 160°
2026-05-05 18:24 49.48187 44.37944 35972 ft 448 kts 156°
2026-05-05 18:25 49.42461 44.41590 35972 ft 448 kts 156°
2026-05-05 18:25 49.36695 44.45235 35974 ft 448 kts 156°
2026-05-05 18:26 49.30935 44.48888 35972 ft 448 kts 156°
2026-05-05 18:26 49.25173 44.52519 35970 ft 448 kts 156°
2026-05-05 18:27 49.19410 44.56137 35968 ft 448 kts 156°
2026-05-05 18:27 49.13653 44.59750 35963 ft 448 kts 156°